Location: Glencliff
(36.1226°N, 86.7183°W)
Time: 03:06:32
(UTC+00:00)

Cosmos 1842 Rocket - Pass Details

Date: 25 August 2019
Orbit: 605 x 635 km, 82.5° (Epoch: 16 September)

Event Time Altitude Azimuth Distance (km) Brightness Sun altitude
Exits shadow 09:26:35 53° 221° (SW) 761 3.6 -20.6°
Maximum altitude 09:27:26 68° 277° (W) 668 3.5 -20.5°
Drops below altitude 10° 09:31:48 10° 1° (N) 1,980 6.5 -19.7°
Sets 09:34:02 0° 4° (N) 2,884 7.5 -19.3°
